Weather History for Carrollton, GA

Change the Weather History Date:

Monday, June 18, 2012

  Actual Average Record
Temperature  
Mean Temperature 72 °F -  
Max Temperature 86 °F 87 °F 96 °F (1952)
Min Temperature 59 °F 63 °F 50 °F (1974)
Cooling Degree Days 8    
Growing Degree Days 22 (Base 50)    
Moisture  
Dew Point 59 °F    
Average Humidity 66    
Maximum Humidity 94    
Minimum Humidity 37    
Precipitation  
Precipitation 0.00 in - - ()
Sea Level Pressure  
Sea Level Pressure 30.09 in    
Wind  
Wind Speed 1 mph (South)    
Max Wind Speed 8 mph    
Max Gust Speed -    
Visibility 10 miles    
Events      
Averages and records for this station are not official NWS values.
T = Trace of Precipitation, MM = Missing Value Source: NWS Daily Summary

Daily Weather History Graph

Daily Weather History Graph

Search for Another Location

Airport:

Trip Planner

Search our weather history database for the weather conditions in past years. The results will help you decide how hot, cold, wet, or windy it might be!

Date:

Astronomy

Jun. 18, 2012 Rise Set
Actual Time 6:30 AM EDT 8:53 PM EDT
Civil Twilight 6:01 AM EDT 9:22 PM EDT
Nautical Twilight 5:25 AM EDT 9:58 PM EDT
Astronomical Twilight 4:46 AM EDT 10:37 PM EDT
Moon 5:42 AM EDT 8:13 PM EDT
Length of Visible Light 15h 21m
Length of Day
14h 23m
Waning Crescent, 1% of the Moon is Illuminated
Jun 18
Waning Crescent
Jun 19
New
Jun 26
First Quarter
Jul 3
Full
Jul 10
Last Quarter

Hourly Weather History & Observations

Time (EDT) Temp. Heat Index Dew Point Humidity Pressure Visibility Wind Dir Wind Speed Gust Speed Precip Events Conditions
12:15 AM 64.4 °F - 60.8 °F 88% 30.06 in 10.0 mi Calm Calm - N/A   Clear
12:55 AM 62.6 °F - 60.8 °F 94% 30.07 in 10.0 mi Calm Calm - N/A   Clear
1:15 AM 62.6 °F - 59.0 °F 88% 30.06 in 10.0 mi Calm Calm - N/A   Clear
1:35 AM 62.6 °F - 59.0 °F 88% 30.06 in 10.0 mi Calm Calm - N/A   Clear
1:55 AM 60.8 °F - 59.0 °F 94% 30.06 in 10.0 mi Calm Calm - N/A   Clear
2:15 AM 60.8 °F - 59.0 °F 94% 30.06 in 10.0 mi Calm Calm - N/A   Clear
2:35 AM 60.8 °F - 59.0 °F 94% 30.05 in 10.0 mi Calm Calm - N/A   Clear
2:55 AM 60.8 °F - 59.0 °F 94% 30.05 in 10.0 mi Calm Calm - N/A   Clear
3:15 AM 60.8 °F - 59.0 °F 94% 30.04 in 10.0 mi Calm Calm - N/A   Clear
3:35 AM 60.8 °F - 59.0 °F 94% 30.04 in 10.0 mi Calm Calm - N/A   Clear
3:55 AM 59.0 °F - 57.2 °F 94% 30.04 in 10.0 mi Calm Calm - N/A   Clear
4:15 AM 59.0 °F - 57.2 °F 94% 30.04 in 10.0 mi Calm Calm - N/A   Clear
4:55 AM 59.0 °F - 57.2 °F 94% 30.04 in 10.0 mi Calm Calm - N/A   Clear
5:15 AM 59.0 °F - 57.2 °F 94% 30.05 in 10.0 mi Calm Calm - N/A   Clear
5:35 AM 59.0 °F - 55.4 °F 88% 30.05 in 10.0 mi Calm Calm - N/A   Clear
5:55 AM 59.0 °F - 57.2 °F 94% 30.06 in 10.0 mi Calm Calm - N/A   Clear
6:15 AM 59.0 °F - 55.4 °F 88% 30.06 in 10.0 mi Calm Calm - N/A   Clear
6:35 AM 59.0 °F - 55.4 °F 88% 30.07 in 10.0 mi Calm Calm - N/A   Clear
6:55 AM 59.0 °F - 55.4 °F 88% 30.07 in 10.0 mi Calm Calm - N/A   Clear
7:15 AM 60.8 °F - 57.2 °F 88% 30.07 in 10.0 mi Calm Calm - N/A   Clear
7:55 AM 62.6 °F - 59.0 °F 88% 30.09 in 10.0 mi Calm Calm - N/A   Clear
8:15 AM 64.4 °F - 60.8 °F 88% 30.10 in 10.0 mi Calm Calm - N/A   Clear
8:55 AM 69.8 °F - 60.8 °F 73% 30.11 in 10.0 mi Calm Calm - N/A   Clear
9:15 AM 71.6 °F - 60.8 °F 69% 30.12 in 10.0 mi Calm Calm - N/A   Clear
9:35 AM 73.4 °F - 62.6 °F 69% 30.12 in 10.0 mi SSE 3.5 mph - N/A   Clear
9:55 AM 75.2 °F - 62.6 °F 65% 30.13 in 10.0 mi Calm Calm - N/A   Clear
10:15 AM 77.0 °F - 62.6 °F 61% 30.12 in 10.0 mi South 3.5 mph - N/A   Clear
10:35 AM 78.8 °F - 62.6 °F 57% 30.12 in 10.0 mi South 4.6 mph - N/A   Clear
10:55 AM 78.8 °F - 60.8 °F 54% 30.12 in 10.0 mi SW 5.8 mph - N/A   Clear
11:15 AM 78.8 °F - 60.8 °F 54% 30.13 in 10.0 mi SW 3.5 mph - N/A   Clear
11:55 AM 78.8 °F - 60.8 °F 54% 30.13 in 10.0 mi Calm Calm - N/A   Scattered Clouds
12:15 PM 78.8 °F - 59.0 °F 51% 30.13 in 10.0 mi Calm Calm - N/A   Mostly Cloudy
12:35 PM 82.4 °F 82.0 °F 57.2 °F 42% 30.13 in 10.0 mi SE 6.9 mph - N/A   Mostly Cloudy
12:55 PM 82.4 °F 82.0 °F 57.2 °F 42% 30.12 in 10.0 mi South 6.9 mph - N/A   Scattered Clouds
1:15 PM 82.4 °F 82.0 °F 57.2 °F 42% 30.12 in 10.0 mi South 8.1 mph - N/A   Clear
1:35 PM 82.4 °F 81.7 °F 55.4 °F 39% 30.12 in 10.0 mi SE 6.9 mph - N/A   Scattered Clouds
1:55 PM 82.4 °F 82.0 °F 57.2 °F 42% 30.12 in 10.0 mi South 5.8 mph - N/A   Scattered Clouds
2:15 PM 82.4 °F 81.7 °F 55.4 °F 39% 30.11 in 10.0 mi South 4.6 mph - N/A   Scattered Clouds
2:35 PM 84.2 °F 83.0 °F 55.4 °F 37% 30.10 in 10.0 mi South 5.8 mph - N/A   Mostly Cloudy
2:55 PM 82.4 °F 82.0 °F 57.2 °F 42% 30.10 in 10.0 mi South 6.9 mph - N/A   Scattered Clouds
3:15 PM 82.4 °F 82.5 °F 59.0 °F 45% 30.10 in 10.0 mi South 3.5 mph - N/A   Scattered Clouds
3:35 PM 84.2 °F 83.0 °F 55.4 °F 37% 30.09 in 10.0 mi SE 4.6 mph - N/A   Scattered Clouds
3:55 PM 84.2 °F 83.8 °F 59.0 °F 42% 30.09 in 10.0 mi South 4.6 mph - N/A   Clear
4:15 PM 86.0 °F 84.9 °F 57.2 °F 37% 30.08 in 10.0 mi SE 3.5 mph - N/A   Clear
4:35 PM 86.0 °F 84.9 °F 57.2 °F 37% 30.08 in 10.0 mi SE 5.8 mph - N/A   Mostly Cloudy
4:55 PM 82.4 °F 82.0 °F 57.2 °F 42% 30.08 in 10.0 mi South 5.8 mph - N/A   Scattered Clouds
5:15 PM 86.0 °F 84.9 °F 57.2 °F 37% 30.07 in 10.0 mi SSW 3.5 mph - N/A   Clear
5:35 PM 86.0 °F 85.4 °F 59.0 °F 40% 30.06 in 10.0 mi South 5.8 mph - N/A   Scattered Clouds
5:55 PM 84.2 °F 83.8 °F 59.0 °F 42% 30.06 in 10.0 mi SSW 4.6 mph - N/A   Scattered Clouds
6:15 PM 86.0 °F 85.4 °F 59.0 °F 40% 30.06 in 10.0 mi SSW 3.5 mph - N/A   Clear
6:35 PM 84.2 °F 83.8 °F 59.0 °F 42% 30.06 in 10.0 mi South 4.6 mph - N/A   Clear
6:55 PM 84.2 °F 83.5 °F 57.2 °F 40% 30.06 in 10.0 mi South 4.6 mph - N/A   Clear
7:15 PM 82.4 °F 82.5 °F 59.0 °F 45% 30.06 in 10.0 mi Calm Calm - N/A   Scattered Clouds
7:35 PM 82.4 °F 82.5 °F 59.0 °F 45% 30.06 in 10.0 mi South 3.5 mph - N/A   Mostly Cloudy
7:55 PM 82.4 °F 82.9 °F 60.8 °F 48% 30.07 in 10.0 mi SSE 4.6 mph - N/A   Scattered Clouds
8:15 PM 80.6 °F 81.5 °F 60.8 °F 51% 30.07 in 10.0 mi Calm Calm - N/A   Scattered Clouds
8:35 PM 78.8 °F - 62.6 °F 57% 30.08 in 10.0 mi Calm Calm - N/A   Scattered Clouds
8:55 PM 75.2 °F - 64.4 °F 69% 30.08 in 10.0 mi Calm Calm - N/A   Clear
9:15 PM 73.4 °F - 64.4 °F 73% 30.08 in 10.0 mi Calm Calm - N/A   Clear
9:35 PM 73.4 °F - 62.6 °F 69% 30.09 in 10.0 mi Calm Calm - N/A   Clear
9:55 PM 71.6 °F - 62.6 °F 73% 30.09 in 10.0 mi Calm Calm - N/A   Scattered Clouds
10:15 PM 69.8 °F - 62.6 °F 78% 30.10 in 10.0 mi Calm Calm - N/A   Scattered Clouds
10:35 PM 69.8 °F - 62.6 °F 78% 30.11 in 10.0 mi Calm Calm - N/A   Scattered Clouds
10:55 PM 69.8 °F - 62.6 °F 78% 30.12 in 10.0 mi Calm Calm - N/A   Clear
11:15 PM 68.0 °F - 62.6 °F 83% 30.12 in 10.0 mi Calm Calm - N/A   Clear
11:35 PM 68.0 °F - 62.6 °F 83% 30.12 in 10.0 mi Calm Calm - N/A   Clear
11:55 PM 68.0 °F - 62.6 °F 83% 30.12 in 10.0 mi Calm Calm - N/A   Clear